CAPE
899 760 311 747 816 773 890 1011 1066 1089 936 865 666 492 400 655 614 466 454 738 1306 1430 1849 1305 875 1149 1245 1689 1281 1108 1034 527 346 851 668 659 598 742 457 277 413 169 112
420 385 249 446 606 637 668 714 767 788 853 708 589 450 274 265 326 451 455 755 1409 1383 1537 1601 1220 1564 1422 1687 1594 1487 1091 901 746 977 1153 758 955 844 703 210 539 401 304
629 302 289 388 392 255 288 330 515 644 459 477 481 442 282 193 211 201 378 544 644 1178 1578 1431 1452 1840 1804 2017 1752 1837 1751 1514 1232 1038 1286 941 1126 1001 710 815 585 519 817
383 309 318 269 474 363 193 193 187 218 169 130 115 106 108 154 95 71 218 582 663 552 1189 1667 1376 1377 1420 2080 2092 2028 1897 1816 1529 1336 1335 1208 1176 1078 1022 878 824 879 645
242 224 142 244 439 287 326 306 197 162 142 120 86 0 0 0 0 14 158 327 542 852 697 918 1373 1276 1495 1373 1635 1711 2048 1734 1727 1275 1443 1580 1251 1068 947 1094 996 855 820
356 492 424 583 525 477 351 241 237 230 170 126 65 27 0 12 0 31 85 279 585 690 904 861 1090 955 1434 1291 1144 1085 1013 1053 1236 1269 1496 1490 988 882 655 848 836 845 864
210 115 88 202 165 318 290 210 172 185 154 160 76 25 23 26 79 154 190 257 458 815 834 1105 1105 1073 1043 1157 960 1183 1327 935 758 895 823 854 803 737 698 599 488 486 654
373 324 329 399 300 71 51 66 89 47 31 35 50 20 39 39 38 61 148 232 268 437 777 823 882 835 877 873 951 748 1403 1255 1204 998 455 373 76 361 442 315 233 231 373
253 192 130 84 61 61 52 77 80 68 201 29 52 45 17 25 9 34 90 165 332 380 515 631 742 830 787 790 763 811 916 894 1254 1379 734 417 168 273 122 282 316 238 232
96 42 76 55 43 31 30 38 85 117 97 44 87 118 57 13 30 11 45 37 199 281 359 421 597 629 662 810 575 573 469 339 508 620 421 339 417 455 157 347 414 333 282
0 28 45 40 38 78 110 155 117 111 98 88 68 41 76 96 121 114 44 24 56 136 313 463 424 544 623 740 672 470 240 142 88 164 161 140 148 153 191 184 245 284 309
0 0 54 53 68 114 213 118 105 108 137 149 145 84 41 90 128 37 22 21 53 75 105 138 198 435 638 528 334 133 57 13 0 0 4 9 7 38 99 43 144 286 252
0 0 8 32 86 233 199 166 53 37 64 95 72 60 76 71 65 106 58 58 41 19 74 110 321 385 391 281 117 91 28 2 0 0 0 0 0 5 32 49 102 147 171
2 12 0 40 82 142 209 172 129 49 18 24 40 51 70 86 170 99 65 56 30 15 50 77 133 364 272 31 3 0 0 0 0 0 0 0 0 7 15 21 25 35 46
1 0 0 3 20 23 40 48 8 13 65 43 22 25 40 58 117 125 60 69 105 6 42 63 90 109 189 77 1 0 0 0 0 1 0 0 0 0 0 1 0 2 3
0 0 0 0 0 0 0 0 0 1 17 32 28 47 57 46 27 91 100 68 86 26 19 50 32 69 105 26 0 0 0 0 0 0 0 0 0 4 4 6 0 0 1
0 0 0 0 0 0 0 0 0 0 0 0 0 0 3 23 68 83 99 131 67 54 46 25 36 85 32 2 7 3 7 1 1 2 2 5 12 3 6 6 11 3 4
0 0 0 0 0 0 0 0 0 0 0 0 0 0 0 0 0 0 1 27 53 29 52 25 26 47 17 41 14 6 3 5 13 16 30 34 14 9 2 1 0 0 0
0 0 0 0 0 0 0 0 0 0 0 0 0 0 0 0 0 0 0 0 0 17 36 30 15 11 2 4 4 7 1 19 11 20 14 14 0 0 0 0 1 2 0
0 0 0 0 0 0 0 0 0 0 0 0 0 0 0 0 0 0 0 2 17 38 46 20 19 9 18 7 0 8 11 18 9 6 5 6 8 6 0 0 0 0 8
8 0 0 0 0 0 0 0 0 0 0 0 0 0 0 0 0 0 0 0 0 1 2 38 3 21 9 29 30 25 17 21 8 1 4 3 1 0 0 0 0 0 1
0 1 0 0 0 0 0 0 0 0 0 0 0 0 0 0 0 0 0 0 0 1 1 5 2 3 1 14 18 10 6 14 16 0 0 0 1 2 0 0 0 0 0
7 2 2 0 0 0 0 0 0 0 0 0 0 0 0 0 0 0 0 0 0 0 0 2 1 4 4 6 4 5 7 3 1 0 5 0 5 0 0 0 0 0 0
16 16 11 9 0 0 0 0 0 0 0 0 0 0 0 0 0 0 0 0 0 0 0 0 0 0 1 3 2 4 8 0 0 2 10 0 0 0 0 0 0 0 0
146 44 8 11 4 2 1 0 0 0 0 0 0 0 0 0 0 0 0 0 0 0 0 0 0 0 0 0 0 0 0 0 0 0 4 3 1 0 0 0 0 0 0
80 61 10 11 16 5 5 1 0 3 0 0 0 0 0 0 0 0 0 0 0 0 0 0 0 0 0 0 0 0 0 10 24 26 14 6 0 0 0 0 0 0 0
CIN
-52 -37 -94 -57 -59 -37 -67 -41 -49 -47 -44 -42 -45 -50 -62 -48 -51 -72 -75 -44 -24 -26 -2 -1 -8 0 0 0 0 0 0 0 -1 0 0 0 0 0 0 0 -1 0 0
-37 -61 -174 -73 -36 -41 -58 -51 -30 -41 -36 -40 -35 -41 -59 -52 -58 -65 -71 -61 -31 -27 -15 -2 -7 0 0 0 0 0 0 0 0 0 0 0 0 0 0 0 -1 0 -7
-48 -70 -84 -54 -35 -36 -47 -51 -41 -26 -36 -39 -36 -18 -23 -43 -33 -37 -59 -54 -53 -36 -18 -12 -7 -1 -1 0 0 0 0 0 0 0 0 0 0 0 0 0 0 0 0
-41 -56 -44 -136 -42 -33 -52 -48 -26 -48 -62 -73 -67 -44 -39 -29 -23 -75 -59 -42 -56 -66 -37 -21 -17 -11 -9 -1 0 0 0 0 -1 0 0 0 0 0 0 0 0 0 0
-39 -43 -181 -134 -55 -69 -36 -21 -24 -29 -37 -51 -51 0 0 0 0 -69 -135 -94 -72 -55 -69 -56 -25 -23 -13 -5 -3 -1 0 -1 -2 -4 -1 0 -2 -2 -1 0 0 0 0
-109 -69 -64 -53 -22 -17 -27 -26 -25 -20 -26 -37 -64 -50 0 -45 0 -220 -193 -109 -68 -58 -54 -66 -55 -30 -16 -14 -11 -9 -7 -1 -2 -2 -3 -1 -7 -7 -8 -3 -2 -1 0
-54 -49 -35 -58 -65 -24 -15 -20 -23 -16 -16 -17 -20 -55 -58 -59 -141 -108 -109 -121 -94 -60 -68 -66 -67 -60 -53 -44 -26 -11 -2 -1 -1 -1 -1 0 -3 -5 -5 -5 -4 -5 -3
-35 -25 -18 -9 -13 -31 -27 -27 -16 -17 -21 -11 -3 -16 -38 -51 -55 -159 -123 -124 -138 -114 -79 -83 -87 -85 -76 -68 -50 -50 -7 -3 -3 0 -2 0 -5 -6 -1 -7 -11 -9 -6
-31 -20 -21 -51 -47 -31 -19 -6 -5 -6 0 -7 -2 -7 -7 -40 -29 -50 -105 -117 -102 -102 -92 -87 -86 -78 -74 -63 -54 -55 -40 -37 -21 -5 -12 -1 0 0 -4 -1 -10 -12 -14
-34 -79 -56 -55 -60 -49 -42 -12 -10 -26 -35 0 0 -12 -4 -12 0 -4 -80 -41 -103 -89 -100 -116 -97 -88 -73 -53 -57 -36 -41 -49 -21 -13 -4 -5 -3 0 0 0 0 0 -9
0 -115 -78 -51 -47 -34 -14 -6 -11 -20 -38 -33 0 -8 -3 -5 -30 -44 -21 -82 -117 -89 -73 -78 -86 -75 -60 -24 -19 -23 -43 -35 -49 -11 -11 -4 0 0 -1 0 0 0 0
0 0 -51 -49 -55 -13 -9 -22 -9 -8 -15 -25 -25 0 -1 -19 -23 -41 -19 -71 -22 -80 -63 -64 -56 -57 -26 -22 -23 -42 -57 -82 0 0 -72 -29 -8 -10 -5 -6 0 -1 -2
0 0 -25 -78 -50 -11 -12 -9 -50 -72 -42 -18 -4 -8 -6 -23 -31 -49 -36 -21 -27 -62 -52 -40 -24 -24 -22 -31 -42 -40 -62 -32 0 0 0 0 0 -6 -18 -7 -3 -6 -11
-7 -18 0 -95 -66 -15 -1 -12 -31 -64 -34 -18 -10 -9 -15 -35 -33 -20 -61 -70 -30 0 -24 -32 -8 -4 -10 -54 -7 0 0 0 0 0 0 0 0 -4 -4 -5 -12 -12 -18
-7 0 0 -102 -114 -103 -103 -95 -138 -96 -53 -17 -10 -6 -10 -14 -32 -42 -46 -70 -50 -7 -21 -10 -4 -3 0 -8 0 0 0 0 0 -14 0 0 0 0 0 0 -12 -25 -17
0 0 0 0 0 0 0 0 0 -10 -64 -9 -37 -48 -31 -14 -21 -20 -73 -45 -57 0 -29 -21 -7 0 -1 -4 0 0 0 0 0 0 0 0 0 0 0 -2 0 0 -4
0 0 0 0 0 0 0 0 0 0 0 0 0 0 -1 -19 -27 -18 -17 -43 -42 -10 -6 -15 -12 0 -2 -3 -1 -9 -1 -2 0 0 -13 -12 -3 -6 0 -6 -8 -26 -6
0 0 0 0 0 0 0 0 0 0 0 0 0 0 0 0 0 0 -1 -14 -59 -36 0 -5 -18 -21 -3 0 0 -2 -1 0 -1 -11 -8 -1 -6 -7 -32 -7 0 0 0
0 0 0 0 0 0 0 0 0 0 0 0 0 0 0 0 0 0 0 0 0 -6 -2 -1 -2 -4 0 0 0 0 0 -1 -2 -1 -7 -8 -1 0 0 0 -14 -13 0
0 0 0 0 0 0 0 0 0 0 0 0 0 0 0 0 0 0 0 0 -7 -2 -1 -1 0 0 0 0 0 0 -1 0 -10 -11 -2 0 -1 -1 0 0 0 0 0
-23 0 0 0 0 0 0 0 0 0 0 0 0 0 0 0 0 0 0 0 0 0 0 0 0 0 0 -1 -1 0 -1 0 0 -1 0 -11 0 0 0 0 0 0 0
0 -1 0 0 0 0 0 0 0 0 0 0 0 0 0 0 0 0 0 0 0 -4 -1 0 0 0 -1 0 0 0 -1 0 -1 0 0 -2 -1 0 0 0 0 0 0
-5 0 -1 0 0 0 0 0 0 0 0 0 0 0 0 0 0 0 0 0 0 0 0 -7 0 -5 -2 -3 0 0 0 0 0 0 -2 0 0 0 0 0 0 0 0
-18 0 0 0 0 0 0 0 0 0 0 0 0 0 0 0 0 0 0 0 0 0 0 0 0 0 0 0 0 0 0 0 0 0 0 0 0 0 0 0 0 0 0
-6 -65 0 -4 0 0 0 0 0 0 0 0 0 0 0 0 0 0 0 0 0 0 0 0 0 0 0 0 0 0 0 0 0 0 -1 0 0 0 0 0 0 0 0
-30 -58 0 -22 -4 0 0 -1 0 0 0 0 0 0 0 0 0 0 0 0 0 0 0 0 0 0 0 0 0 0 0 -5 -5 -7 -11 -5 0 0 0 0 0 0 0
Wind_Speed
10 9 8 8 11 14 14 16 14 13 12 11 13 14 14 15 17 20 19 11 12 16 11 12 13 5 7 9 13 14 15 16 15 13 12 8 8 6 8 6 8 6 6
7 6 8 7 7 11 10 13 16 15 15 16 14 14 13 16 17 19 19 21 12 18 14 13 12 11 10 9 11 14 16 17 19 17 12 4 7 6 6 6 7 7 5
5 7 8 6 6 10 11 13 12 16 16 17 14 12 13 14 17 17 17 22 20 13 15 12 10 11 10 11 13 15 14 15 20 16 3 4 5 7 8 7 7 6 7
7 8 10 9 10 13 12 12 14 13 11 13 17 19 17 16 nan nan 27 22 17 16 15 13 10 9 12 13 13 14 14 18 11 13 7 7 8 7 9 9 9 10 9
8 13 11 12 12 15 15 17 17 18 16 18 nan nan nan nan nan nan 16 17 15 15 16 17 14 11 11 11 11 11 13 15 9 10 8 7 10 10 10 11 11 9 10
14 13 15 12 15 15 17 16 16 20 21 22 nan nan nan nan nan nan nan 13 15 12 13 14 17 18 10 10 10 11 8 6 7 11 11 10 12 12 14 16 19 12 10
9 11 nan 15 16 15 14 16 16 15 18 21 nan nan nan nan nan 13 12 16 15 14 14 19 18 18 15 10 8 12 6 6 6 6 12 8 7 9 10 15 15 12 12
8 11 12 11 10 nan nan nan nan nan nan nan nan nan nan nan nan nan 16 18 16 19 14 18 19 18 16 16 13 12 10 6 10 11 22 16 nan 10 7 8 12 13 13
11 13 11 nan nan nan nan nan nan nan 15 nan nan nan nan nan nan nan nan 20 21 20 20 19 17 18 18 16 16 15 16 15 17 22 26 18 17 18 12 11 11 12 10
nan nan nan nan nan nan nan nan nan 18 nan nan nan 18 nan nan nan nan nan nan 24 24 21 18 17 22 19 15 16 17 21 26 29 28 29 29 24 18 19 14 9 14 14
nan nan nan nan nan nan 9 15 17 18 nan nan nan nan nan nan 17 17 nan nan nan 25 25 23 25 27 26 24 23 26 27 26 nan 16 23 18 18 17 20 25 26 25 24
nan nan nan nan nan 6 9 12 13 15 16 15 12 nan nan nan 12 nan nan nan nan nan 22 25 26 29 29 27 28 28 nan nan nan nan nan nan nan nan nan nan 21 25 26
nan nan nan nan nan 6 7 8 nan nan nan nan nan nan nan nan nan 13 nan nan nan nan nan 23 23 23 25 26 29 nan nan nan nan nan nan nan nan nan nan nan 30 33 35
nan nan nan nan nan 5 5 6 9 nan nan nan nan nan nan nan 7 nan nan nan nan nan nan nan 23 24 24 nan nan nan nan nan nan nan nan nan nan nan nan nan nan nan nan
nan nan nan nan nan nan nan nan nan nan nan nan nan nan nan nan 3 7 nan nan 8 nan nan nan nan 21 21 nan nan nan nan nan nan nan nan nan nan nan nan nan nan nan nan
nan nan nan nan nan nan nan nan nan nan nan nan nan nan nan nan nan nan 9 nan nan nan nan nan nan nan 19 nan nan nan nan nan nan nan nan nan nan nan nan nan nan nan nan
nan nan nan nan nan nan nan nan nan nan nan nan nan nan nan nan nan nan nan 4 nan nan nan nan nan nan nan nan nan nan nan nan nan nan nan nan nan nan nan nan nan nan nan
nan nan nan nan nan nan nan nan nan nan nan nan nan nan nan nan nan nan nan nan nan nan nan nan nan nan nan nan nan nan nan nan nan nan nan nan nan nan nan nan nan nan nan
nan nan nan nan nan nan nan nan nan nan nan nan nan nan nan nan nan nan nan nan nan nan nan nan nan nan nan nan nan nan nan nan nan nan nan nan nan nan nan nan nan nan nan
nan nan nan nan nan nan nan nan nan nan nan nan nan nan nan nan nan nan nan nan nan nan nan nan nan nan nan nan nan nan nan nan nan nan nan nan nan nan nan nan nan nan nan
nan nan nan nan nan nan nan nan nan nan nan nan nan nan nan nan nan nan nan nan nan nan nan nan nan nan nan nan nan nan nan nan nan nan nan nan nan nan nan nan nan nan nan
nan nan nan nan nan nan nan nan nan nan nan nan nan nan nan nan nan nan nan nan nan nan nan nan nan nan nan nan nan nan nan nan nan nan nan nan nan nan nan nan nan nan nan
nan nan nan nan nan nan nan nan nan nan nan nan nan nan nan nan nan nan nan nan nan nan nan nan nan nan nan nan nan nan nan nan nan nan nan nan nan nan nan nan nan nan nan
nan nan nan nan nan nan nan nan nan nan nan nan nan nan nan nan nan nan nan nan nan nan nan nan nan nan nan nan nan nan nan nan nan nan nan nan nan nan nan nan nan nan nan
13 nan nan nan nan nan nan nan nan nan nan nan nan nan nan nan nan nan nan nan nan nan nan nan nan nan nan nan nan nan nan nan nan nan nan nan nan nan nan nan nan nan nan
nan nan nan nan nan nan nan nan nan nan nan nan nan nan nan nan nan nan nan nan nan nan nan nan nan nan nan nan nan nan nan nan nan nan nan nan nan nan nan nan nan nan nan
Wind_Direction
280 286 261 260 263 252 247 251 251 257 254 254 250 249 251 257 258 254 256 266 269 273 288 296 298 330 340 344 340 351 349 351 345 339 328 341 333 4 8 19 15 4 1
260 276 256 256 251 246 249 256 254 252 251 256 254 253 247 247 250 256 259 259 253 271 274 287 303 324 339 333 333 342 345 352 341 325 290 310 319 338 359 2 353 355 7
256 265 258 254 264 268 275 281 275 256 253 251 251 253 257 262 258 263 269 249 258 244 270 275 296 299 321 325 335 340 347 345 353 12 15 345 355 334 332 336 340 335 332
278 263 271 278 272 272 269 281 279 275 274 267 258 258 259 267 nan nan 283 256 246 253 250 272 281 294 311 320 327 340 337 350 2 359 12 354 338 330 336 341 335 320 317
262 268 258 258 280 282 283 285 286 285 278 272 nan nan nan nan nan nan 299 251 251 259 266 254 261 265 292 313 316 315 331 339 345 327 332 334 331 322 336 340 335 325 309
266 272 271 270 281 283 283 287 291 288 285 278 nan nan nan nan nan nan nan 248 241 246 265 266 253 249 278 300 282 272 300 349 305 315 312 310 309 299 310 321 325 315 316
256 273 nan 269 276 281 288 292 281 284 272 278 nan nan nan nan nan 269 277 253 252 255 263 259 257 261 257 260 257 282 249 283 318 314 272 252 288 302 317 328 327 326 315
271 304 304 287 282 nan nan nan nan nan nan nan nan nan nan nan nan nan 267 258 260 247 254 268 265 270 270 264 262 246 284 318 321 328 308 317 nan 250 280 326 316 331 311
276 288 290 nan nan nan nan nan nan nan 298 nan nan nan nan nan nan nan nan 259 246 244 254 263 260 256 260 259 265 269 279 279 307 320 311 312 313 323 285 253 273 287 296
nan nan nan nan nan nan nan nan nan 317 nan nan nan 281 nan nan nan nan nan nan 249 237 247 260 253 252 254 257 266 273 267 265 271 282 285 279 272 304 334 289 330 254 285
nan nan nan nan nan nan 317 326 318 318 nan nan nan nan nan nan 265 267 nan nan nan 236 242 247 247 248 250 255 258 271 272 262 nan 278 299 301 254 241 266 238 250 264 261
nan nan nan nan nan 293 317 304 306 320 316 308 304 nan nan nan 273 nan nan nan nan nan 244 244 250 245 249 254 264 266 nan nan nan nan nan nan nan nan nan nan 251 243 262
nan nan nan nan nan 282 291 300 nan nan nan nan nan nan nan nan nan 279 nan nan nan nan nan 248 235 248 253 258 260 nan nan nan nan nan nan nan nan nan nan nan 252 243 252
nan nan nan nan nan 246 262 291 310 nan nan nan nan nan nan nan 313 nan nan nan nan nan nan nan 239 249 255 nan nan nan nan nan nan nan nan nan nan nan nan nan nan nan nan
nan nan nan nan nan nan nan nan nan nan nan nan nan nan nan nan 0 21 nan nan 285 nan nan nan nan 247 255 nan nan nan nan nan nan nan nan nan nan nan nan nan nan nan nan
nan nan nan nan nan nan nan nan nan nan nan nan nan nan nan nan nan nan 60 nan nan nan nan nan nan nan 263 nan nan nan nan nan nan nan nan nan nan nan nan nan nan nan nan
nan nan nan nan nan nan nan nan nan nan nan nan nan nan nan nan nan nan nan 41 nan nan nan nan nan nan nan nan nan nan nan nan nan nan nan nan nan nan nan nan nan nan nan
nan nan nan nan nan nan nan nan nan nan nan nan nan nan nan nan nan nan nan nan nan nan nan nan nan nan nan nan nan nan nan nan nan nan nan nan nan nan nan nan nan nan nan
nan nan nan nan nan nan nan nan nan nan nan nan nan nan nan nan nan nan nan nan nan nan nan nan nan nan nan nan nan nan nan nan nan nan nan nan nan nan nan nan nan nan nan
nan nan nan nan nan nan nan nan nan nan nan nan nan nan nan nan nan nan nan nan nan nan nan nan nan nan nan nan nan nan nan nan nan nan nan nan nan nan nan nan nan nan nan
nan nan nan nan nan nan nan nan nan nan nan nan nan nan nan nan nan nan nan nan nan nan nan nan nan nan nan nan nan nan nan nan nan nan nan nan nan nan nan nan nan nan nan
nan nan nan nan nan nan nan nan nan nan nan nan nan nan nan nan nan nan nan nan nan nan nan nan nan nan nan nan nan nan nan nan nan nan nan nan nan nan nan nan nan nan nan
nan nan nan nan nan nan nan nan nan nan nan nan nan nan nan nan nan nan nan nan nan nan nan nan nan nan nan nan nan nan nan nan nan nan nan nan nan nan nan nan nan nan nan
nan nan nan nan nan nan nan nan nan nan nan nan nan nan nan nan nan nan nan nan nan nan nan nan nan nan nan nan nan nan nan nan nan nan nan nan nan nan nan nan nan nan nan
312 nan nan nan nan nan nan nan nan nan nan nan nan nan nan nan nan nan nan nan nan nan nan nan nan nan nan nan nan nan nan nan nan nan nan nan nan nan nan nan nan nan nan
nan nan nan nan nan nan nan nan nan nan nan nan nan nan nan nan nan nan nan nan nan nan nan nan nan nan nan nan nan nan nan nan nan nan nan nan nan nan nan nan nan nan nan